Back to catalog

CZ-3B R/B

AliveHEO
NORAD 66991·ROCKET BODY·🇨🇳 China

Launched Dec 9, 2025 from Xichang Satellite Launch Center

Loading…

Next Passes (next 24 hours)

TLE

FreshSource: Space-Track

Epoch: Sep 14, 2026, 03:16 UTC

1 66991U 25290B   26257.13671027  .00082711  68611-6  20604-2 0  9999
2 66991  28.0151 167.3772 6759128  40.1901 353.8185  3.01892839  7852

Track CZ-3B R/B in real time with AllMySat

Download on the App Store